Time,TemperatureF,DewpointF,PressureIn,WindDirection,WindDirectionDegrees,WindSpeedMPH,WindSpeedGustMPH,Humidity,HourlyPrecipIn,Conditions,Clouds,dailyrainin,SoftwareType,DateUTC
2013-01-05 00:00:00,33.2,24.8,29.79,South,189,11.0,11.0,71,0.00,,,0.01,Wunderground v.1.15,2013-01-05 05:00:00,
2013-01-05 00:01:00,33.2,24.8,29.79,SSW,196,6.0,11.0,71,0.00,,,0.01,Wunderground v.1.15,2013-01-05 05:01:00,
2013-01-05 00:03:00,33.1,24.7,29.79,South,190,5.0,12.0,71,0.00,,,0.01,Wunderground v.1.15,2013-01-05 05:03:00,
2013-01-05 00:05:00,33.1,24.7,29.79,SSW,202,11.0,12.0,71,0.00,,,0.01,Wunderground v.1.15,2013-01-05 05:05:00,
2013-01-05 00:10:00,33.4,24.0,29.79,SSW,206,6.0,8.0,68,0.00,,,0.01,Wunderground v.1.15,2013-01-05 05:10:00,
2013-01-05 00:15:00,33.4,23.3,29.79,SW,220,5.0,8.0,66,0.00,,,0.01,Wunderground v.1.15,2013-01-05 05:15:00,
2013-01-05 00:21:00,33.5,21.9,29.79,WSW,258,6.0,7.0,62,0.00,,,0.01,Wunderground v.1.15,2013-01-05 05:21:00,
2013-01-05 00:26:00,33.7,21.7,29.78,West,266,11.0,11.0,61,0.00,,,0.01,Wunderground v.1.15,2013-01-05 05:26:00,
2013-01-05 00:31:00,33.7,20.5,29.78,WSW,249,5.0,7.0,58,0.00,,,0.01,Wunderground v.1.15,2013-01-05 05:31:00,
2013-01-05 00:37:00,33.1,23.0,29.78,SW,225,1.0,7.0,66,0.00,,,0.01,Wunderground v.1.15,2013-01-05 05:37:00,
2013-01-05 00:42:00,32.4,23.4,29.79,SW,225,2.0,3.0,69,0.00,,,0.01,Wunderground v.1.15,2013-01-05 05:42:00,
2013-01-05 00:48:00,31.9,23.2,29.79,SW,225,3.0,3.0,70,0.00,,,0.01,Wunderground v.1.15,2013-01-05 05:48:00,
2013-01-05 00:53:00,32.1,23.4,29.79,SW,225,3.0,3.0,70,0.00,,,0.01,Wunderground v.1.15,2013-01-05 05:53:00,
2013-01-05 00:58:00,31.8,23.5,29.79,SW,224,2.0,4.0,71,0.00,,,0.01,Wunderground v.1.15,2013-01-05 05:58:00,
2013-01-05 01:03:00,31.6,23.6,29.79,SW,225,1.0,3.0,72,0.00,,,0.01,Wunderground v.1.15,2013-01-05 06:03:00,
2013-01-05 01:09:00,31.6,23.6,29.79,WSW,246,6.0,6.0,72,0.00,,,0.01,Wunderground v.1.15,2013-01-05 06:09:00,
2013-01-05 01:14:00,31.9,23.6,29.79,WSW,238,3.0,3.0,71,0.00,,,0.01,Wunderground v.1.15,2013-01-05 06:14:00,
2013-01-05 01:20:00,32.4,23.7,29.79,WSW,238,3.0,4.0,70,0.00,,,0.01,Wunderground v.1.15,2013-01-05 06:20:00,
2013-01-05 01:26:00,32.5,23.5,29.80,WSW,248,3.0,5.0,69,0.00,,,0.01,Wunderground v.1.15,2013-01-05 06:26:00,
2013-01-05 01:32:00,33.1,22.6,29.80,West,267,15.0,15.0,65,0.00,,,0.01,Wunderground v.1.15,2013-01-05 06:32:00,
2013-01-05 01:38:00,35.0,22.5,29.80,West,266,10.0,15.0,60,0.00,,,0.01,Wunderground v.1.15,2013-01-05 06:38:00,
2013-01-05 01:44:00,35.3,22.8,29.80,West,269,8.0,11.0,60,0.00,,,0.01,Wunderground v.1.15,2013-01-05 06:44:00,
2013-01-05 01:49:00,35.5,23.0,29.80,West,278,13.0,15.0,60,0.00,,,0.01,Wunderground v.1.15,2013-01-05 06:49:00,
2013-01-05 01:55:00,35.5,23.0,29.81,WNW,298,7.0,13.0,60,0.00,,,0.01,Wunderground v.1.15,2013-01-05 06:55:00,
2013-01-05 02:00:00,35.5,23.0,29.81,WNW,282,10.0,10.0,60,0.00,,,0.01,Wunderground v.1.15,2013-01-05 07:00:00,
2013-01-05 02:05:00,35.6,23.1,29.81,WNW,290,4.0,12.0,60,0.00,,,0.01,Wunderground v.1.15,2013-01-05 07:05:00,
2013-01-05 02:10:00,35.6,23.1,29.82,NW,306,9.0,13.0,60,0.00,,,0.01,Wunderground v.1.15,2013-01-05 07:10:00,
2013-01-05 02:15:00,35.8,23.3,29.82,WNW,298,11.0,17.0,60,0.00,,,0.01,Wunderground v.1.15,2013-01-05 07:15:00,
2013-01-05 02:20:00,36.0,23.0,29.82,NW,314,12.0,12.0,59,0.00,,,0.01,Wunderground v.1.15,2013-01-05 07:20:00,
2013-01-05 02:25:00,36.0,23.4,29.83,WNW,296,5.0,14.0,60,0.00,,,0.01,Wunderground v.1.15,2013-01-05 07:25:00,
2013-01-05 02:30:00,36.0,23.8,29.83,WNW,292,16.0,16.0,61,0.00,,,0.01,Wunderground v.1.15,2013-01-05 07:30:00,
2013-01-05 02:35:00,35.9,24.1,29.83,NW,323,14.0,19.0,62,0.00,,,0.01,Wunderground v.1.15,2013-01-05 07:35:00,
2013-01-05 02:40:00,35.8,24.4,29.84,NW,316,10.0,12.0,63,0.00,,,0.01,Wunderground v.1.15,2013-01-05 07:40:00,
2013-01-05 02:45:00,35.5,24.5,29.84,WNW,294,9.0,16.0,64,0.00,,,0.01,Wunderground v.1.15,2013-01-05 07:45:00,
2013-01-05 02:50:00,35.3,24.3,29.84,NW,313,6.0,10.0,64,0.00,,,0.01,Wunderground v.1.15,2013-01-05 07:50:00,
2013-01-05 02:55:00,35.3,24.3,29.85,NW,306,5.0,11.0,64,0.00,,,0.01,Wunderground v.1.15,2013-01-05 07:55:00,
2013-01-05 03:01:00,35.2,24.2,29.85,NW,322,4.0,6.0,64,0.00,,,0.01,Wunderground v.1.15,2013-01-05 08:01:00,
2013-01-05 03:06:00,35.2,24.2,29.85,NW,319,3.0,7.0,64,0.00,,,0.01,Wunderground v.1.15,2013-01-05 08:06:00,
2013-01-05 03:11:00,35.6,23.9,29.86,NW,306,6.0,12.0,62,0.00,,,0.01,Wunderground v.1.15,2013-01-05 08:11:00,
2013-01-05 03:16:00,35.6,24.2,29.86,NW,317,10.0,15.0,63,0.00,,,0.01,Wunderground v.1.15,2013-01-05 08:16:00,
2013-01-05 03:21:00,35.6,24.2,29.86,NW,316,11.0,11.0,63,0.00,,,0.01,Wunderground v.1.15,2013-01-05 08:21:00,
2013-01-05 03:27:00,35.5,24.5,29.86,NNW,327,9.0,13.0,64,0.00,,,0.01,Wunderground v.1.15,2013-01-05 08:27:00,
2013-01-05 03:32:00,35.3,24.3,29.86,NW,325,6.0,9.0,64,0.00,,,0.01,Wunderground v.1.15,2013-01-05 08:32:00,
2013-01-05 03:38:00,35.3,24.3,29.86,NW,306,4.0,14.0,64,0.00,,,0.01,Wunderground v.1.15,2013-01-05 08:38:00,
2013-01-05 03:43:00,35.3,24.3,29.87,NW,325,5.0,14.0,64,0.00,,,0.01,Wunderground v.1.15,2013-01-05 08:43:00,
2013-01-05 03:48:00,35.2,24.2,29.87,WNW,302,14.0,19.0,64,0.00,,,0.01,Wunderground v.1.15,2013-01-05 08:48:00,
2013-01-05 03:53:00,35.3,24.0,29.87,NW,317,6.0,15.0,63,0.00,,,0.01,Wunderground v.1.15,2013-01-05 08:53:00,
2013-01-05 03:58:00,35.0,23.7,29.87,NW,319,6.0,15.0,63,0.00,,,0.01,Wunderground v.1.15,2013-01-05 08:58:00,
2013-01-05 04:03:00,35.0,22.9,29.87,NW,317,10.0,15.0,61,0.00,,,0.01,Wunderground v.1.15,2013-01-05 09:03:00,
2013-01-05 04:08:00,35.0,22.9,29.87,NNW,333,3.0,15.0,61,0.00,,,0.01,Wunderground v.1.15,2013-01-05 09:08:00,
2013-01-05 04:13:00,35.0,22.5,29.88,NW,319,0.0,17.0,60,0.00,,,0.01,Wunderground v.1.15,2013-01-05 09:13:00,
2013-01-05 04:18:00,35.0,22.1,29.88,NW,321,6.0,17.0,59,0.00,,,0.01,Wunderground v.1.15,2013-01-05 09:18:00,
2013-01-05 04:23:00,35.2,21.5,29.88,NW,314,17.0,18.0,57,0.00,,,0.01,Wunderground v.1.15,2013-01-05 09:23:00,
2013-01-05 04:28:00,35.5,21.8,29.89,NW,312,11.0,18.0,57,0.00,,,0.01,Wunderground v.1.15,2013-01-05 09:28:00,
2013-01-05 04:33:00,35.3,22.0,29.89,NW,319,9.0,12.0,58,0.00,,,0.01,Wunderground v.1.15,2013-01-05 09:33:00,
2013-01-05 04:38:00,35.5,21.3,29.89,NW,325,6.0,15.0,56,0.00,,,0.01,Wunderground v.1.15,2013-01-05 09:38:00,
2013-01-05 04:43:00,35.3,21.6,29.89,NW,321,7.0,9.0,57,0.00,,,0.00,Wunderground v.1.15,2013-01-05 09:43:00,
2013-01-05 04:48:00,35.3,21.2,29.89,West,281,15.0,16.0,56,0.00,,,0.00,Wunderground v.1.15,2013-01-05 09:48:00,
2013-01-05 04:53:00,35.3,21.6,29.89,NW,305,7.0,16.0,57,0.00,,,0.00,Wunderground v.1.15,2013-01-05 09:53:00,
2013-01-05 04:58:00,35.2,21.9,29.91,NNW,327,3.0,17.0,58,0.00,,,0.00,Wunderground v.1.15,2013-01-05 09:58:00,
2013-01-05 05:03:00,34.9,22.4,29.91,NW,325,5.0,17.0,60,0.00,,,0.00,Wunderground v.1.15,2013-01-05 10:03:00,
2013-01-05 05:08:00,33.2,25.8,29.91,NNW,340,5.0,17.0,74,0.00,,,0.00,Wunderground v.1.15,2013-01-05 10:08:00,
2013-01-05 05:13:00,32.1,26.3,29.92,WNW,293,7.0,10.0,79,0.00,,,0.00,Wunderground v.1.15,2013-01-05 10:13:00,
2013-01-05 05:18:00,31.8,26.3,29.92,NW,323,6.0,12.0,80,0.00,,,0.00,Wunderground v.1.15,2013-01-05 10:18:00,
2013-01-05 05:23:00,31.5,25.1,29.92,NNW,337,7.0,16.0,77,0.00,,,0.00,Wunderground v.1.15,2013-01-05 10:23:00,
2013-01-05 05:28:00,31.5,24.2,29.93,NNW,332,3.0,16.0,74,0.00,,,0.00,Wunderground v.1.15,2013-01-05 10:28:00,
2013-01-05 05:33:00,31.3,23.3,29.93,NNW,342,1.0,9.0,72,0.00,,,0.00,Wunderground v.1.15,2013-01-05 10:33:00,
2013-01-05 05:38:00,31.3,22.3,29.93,NNW,328,0.0,9.0,69,0.00,,,0.00,Wunderground v.1.15,2013-01-05 10:38:00,
2013-01-05 05:43:00,31.3,21.6,29.95,NNW,344,1.0,11.0,67,0.00,,,0.00,Wunderground v.1.15,2013-01-05 10:43:00,
2013-01-05 05:48:00,31.0,20.6,29.95,NNW,344,1.0,11.0,65,0.00,,,0.00,Wunderground v.1.15,2013-01-05 10:48:00,
2013-01-05 05:53:00,31.0,19.9,29.95,NNW,347,2.0,7.0,63,0.00,,,0.00,Wunderground v.1.15,2013-01-05 10:53:00,
2013-01-05 05:58:00,31.0,19.1,29.98,NNW,347,0.0,7.0,61,0.00,,,0.00,Wunderground v.1.15,2013-01-05 10:58:00,
2013-01-05 06:03:00,30.9,18.6,29.98,North,355,2.0,9.0,60,0.00,,,0.00,Wunderground v.1.15,2013-01-05 11:03:00,
2013-01-05 06:08:00,30.9,18.2,29.98,North,355,1.0,9.0,59,0.00,,,0.00,Wunderground v.1.15,2013-01-05 11:08:00,
2013-01-05 06:13:00,31.0,17.1,29.99,North,355,2.0,5.0,56,0.00,,,0.00,Wunderground v.1.15,2013-01-05 11:13:00,
2013-01-05 06:18:00,31.2,16.0,29.99,NW,319,12.0,14.0,53,0.00,,,0.00,Wunderground v.1.15,2013-01-05 11:18:00,
2013-01-05 06:23:00,31.3,15.7,29.99,NNW,328,0.0,7.0,52,0.00,,,0.00,Wunderground v.1.15,2013-01-05 11:23:00,
2013-01-05 06:28:00,31.2,15.6,30.00,NNW,328,7.0,19.0,52,0.00,,,0.00,Wunderground v.1.15,2013-01-05 11:28:00,
2013-01-05 06:33:00,31.2,16.0,30.00,NNW,328,5.0,10.0,53,0.00,,,0.00,Wunderground v.1.15,2013-01-05 11:33:00,
2013-01-05 06:38:00,30.9,15.8,30.00,North,355,2.0,11.0,53,0.00,,,0.00,Wunderground v.1.15,2013-01-05 11:38:00,
2013-01-05 06:43:00,30.6,15.5,30.02,NNW,331,7.0,9.0,53,0.00,,,0.00,Wunderground v.1.15,2013-01-05 11:43:00,
2013-01-05 06:48:00,30.6,14.6,30.02,NNW,330,2.0,9.0,51,0.00,,,0.00,Wunderground v.1.15,2013-01-05 11:48:00,
2013-01-05 06:53:00,30.3,14.8,30.02,NNW,333,1.0,6.0,52,0.00,,,0.00,Wunderground v.1.15,2013-01-05 11:53:00,
2013-01-05 06:59:00,30.1,15.0,30.04,NNE,18,0.0,7.0,53,0.00,,,0.00,Wunderground v.1.15,2013-01-05 11:59:00,
2013-01-05 07:04:00,30.0,14.9,30.04,North,360,3.0,7.0,53,0.00,,,0.00,Wunderground v.1.15,2013-01-05 12:04:00,
2013-01-05 07:09:00,30.0,14.9,30.04,East,81,4.0,11.0,53,0.00,,,0.00,Wunderground v.1.15,2013-01-05 12:09:00,
2013-01-05 07:14:00,30.1,15.0,30.06,ENE,57,5.0,5.0,53,0.00,,,0.00,Wunderground v.1.15,2013-01-05 12:14:00,
2013-01-05 07:19:00,30.1,15.0,30.06,ENE,76,5.0,10.0,53,0.00,,,0.00,Wunderground v.1.15,2013-01-05 12:19:00,
2013-01-05 07:24:00,30.0,15.3,30.06,NNW,338,1.0,12.0,54,0.00,,,0.00,Wunderground v.1.15,2013-01-05 12:24:00,
2013-01-05 07:29:00,30.0,15.3,30.07,NNE,26,10.0,12.0,54,0.00,,,0.00,Wunderground v.1.15,2013-01-05 12:29:00,
2013-01-05 07:34:00,30.0,15.3,30.07,NNE,15,9.0,12.0,54,0.00,,,0.00,Wunderground v.1.15,2013-01-05 12:34:00,
2013-01-05 07:39:00,30.1,15.0,30.07,North,11,6.0,12.0,53,0.00,,,0.00,Wunderground v.1.15,2013-01-05 12:39:00,
2013-01-05 07:44:00,30.0,15.3,30.09,North,5,1.0,10.0,54,0.00,,,0.00,Wunderground v.1.15,2013-01-05 12:44:00,
2013-01-05 07:49:00,29.8,15.2,30.09,North,360,6.0,14.0,54,0.00,,,0.00,Wunderground v.1.15,2013-01-05 12:49:00,
2013-01-05 07:54:00,29.7,15.5,30.09,North,5,5.0,10.0,55,0.00,,,0.00,Wunderground v.1.15,2013-01-05 12:54:00,
2013-01-05 07:59:00,29.5,15.7,30.11,NNW,327,6.0,16.0,56,0.00,,,0.00,Wunderground v.1.15,2013-01-05 12:59:00,
2013-01-05 08:04:00,29.4,15.2,30.11,NW,324,3.0,19.0,55,0.00,,,0.00,Wunderground v.1.15,2013-01-05 13:04:00,
2013-01-05 08:10:00,29.4,15.2,30.12,WNW,292,6.0,7.0,55,0.00,,,0.00,Wunderground v.1.15,2013-01-05 13:10:00,
2013-01-05 08:15:00,29.4,15.2,30.12,NNW,332,7.0,22.0,55,0.00,,,0.00,Wunderground v.1.15,2013-01-05 13:15:00,
2013-01-05 08:20:00,29.3,15.5,30.12,NNW,329,11.0,11.0,56,0.00,,,0.00,Wunderground v.1.15,2013-01-05 13:20:00,
2013-01-05 08:25:00,29.3,15.1,30.13,NW,304,13.0,23.0,55,0.00,,,0.00,Wunderground v.1.15,2013-01-05 13:25:00,
2013-01-05 08:30:00,29.4,15.2,30.13,NW,325,16.0,16.0,55,0.00,,,0.00,Wunderground v.1.15,2013-01-05 13:30:00,
2013-01-05 08:35:00,29.4,15.6,30.13,NNW,331,3.0,16.0,56,0.00,,,0.00,Wunderground v.1.15,2013-01-05 13:35:00,
2013-01-05 08:40:00,29.3,15.5,30.14,NW,326,2.0,6.0,56,0.00,,,0.00,Wunderground v.1.15,2013-01-05 13:40:00,
2013-01-05 08:45:00,29.1,14.9,30.14,NNW,341,4.0,15.0,55,0.00,,,0.00,Wunderground v.1.15,2013-01-05 13:45:00,
2013-01-05 08:50:00,29.1,14.9,30.14,NNW,340,12.0,15.0,55,0.00,,,0.00,Wunderground v.1.15,2013-01-05 13:50:00,
2013-01-05 08:56:00,29.1,14.9,30.14,NNW,336,14.0,17.0,55,0.00,,,0.00,Wunderground v.1.15,2013-01-05 13:56:00,
2013-01-05 09:01:00,29.3,15.1,30.14,NNW,336,7.0,12.0,55,0.00,,,0.00,Wunderground v.1.15,2013-01-05 14:01:00,
2013-01-05 09:06:00,29.4,15.6,30.14,NNW,329,2.0,16.0,56,0.00,,,0.00,Wunderground v.1.15,2013-01-05 14:06:00,
2013-01-05 09:11:00,29.4,15.6,30.16,NW,315,7.0,11.0,56,0.00,,,0.00,Wunderground v.1.15,2013-01-05 14:11:00,
2013-01-05 09:16:00,29.5,15.3,30.16,NNW,331,1.0,11.0,55,0.00,,,0.00,Wunderground v.1.15,2013-01-05 14:16:00,
2013-01-05 09:21:00,29.5,15.7,30.16,NNW,345,2.0,12.0,56,0.00,,,0.00,Wunderground v.1.15,2013-01-05 14:21:00,
2013-01-05 09:26:00,29.5,15.7,30.16,NNW,347,4.0,13.0,56,0.00,,,0.00,Wunderground v.1.15,2013-01-05 14:26:00,
2013-01-05 09:31:00,29.5,14.9,30.16,NNW,338,1.0,12.0,54,0.00,,,0.00,Wunderground v.1.15,2013-01-05 14:31:00,
2013-01-05 09:36:00,29.5,14.9,30.16,WNW,302,17.0,17.0,54,0.00,,,0.00,Wunderground v.1.15,2013-01-05 14:36:00,
2013-01-05 09:42:00,29.5,14.5,30.17,NW,324,5.0,15.0,53,0.00,,,0.00,Wunderground v.1.15,2013-01-05 14:42:00,
2013-01-05 09:47:00,29.5,14.5,30.17,NNW,329,3.0,15.0,53,0.00,,,0.00,Wunderground v.1.15,2013-01-05 14:47:00,
2013-01-05 09:52:00,29.4,14.8,30.17,NW,322,7.0,7.0,54,0.00,,,0.00,Wunderground v.1.15,2013-01-05 14:52:00,
2013-01-05 09:57:00,29.5,14.9,30.18,NW,322,4.0,15.0,54,0.00,,,0.00,Wunderground v.1.15,2013-01-05 14:57:00,
2013-01-05 10:02:00,29.4,14.8,30.18,NNW,331,7.0,12.0,54,0.00,,,0.00,Wunderground v.1.15,2013-01-05 15:02:00,
2013-01-05 10:07:00,29.3,16.3,30.18,North,355,9.0,13.0,58,0.00,,,0.00,Wunderground v.1.15,2013-01-05 15:07:00,
2013-01-05 10:12:00,28.4,16.7,30.20,NNE,17,9.0,9.0,61,0.00,,,0.00,Wunderground v.1.15,2013-01-05 15:12:00,
2013-01-05 10:17:00,27.0,16.1,30.20,NE,40,13.0,21.0,63,0.00,,,0.00,Wunderground v.1.15,2013-01-05 15:17:00,
2013-01-05 10:22:00,26.4,16.6,30.20,ENE,59,10.0,17.0,66,0.00,,,0.00,Wunderground v.1.15,2013-01-05 15:22:00,
2013-01-05 10:27:00,25.7,16.3,30.20,NE,38,12.0,21.0,67,0.00,,,0.00,Wunderground v.1.15,2013-01-05 15:27:00,
2013-01-05 10:32:00,25.1,16.0,30.20,NE,41,18.0,19.0,68,0.00,,,0.00,Wunderground v.1.15,2013-01-05 15:32:00,
2013-01-05 10:37:00,24.5,15.1,30.20,NE,44,13.0,21.0,67,0.00,,,0.00,Wunderground v.1.15,2013-01-05 15:37:00,
2013-01-05 10:42:00,24.4,15.0,30.21,NE,38,13.0,20.0,67,0.00,,,0.00,Wunderground v.1.15,2013-01-05 15:42:00,
2013-01-05 10:47:00,24.2,14.5,30.21,NE,50,15.0,23.0,66,0.00,,,0.00,Wunderground v.1.15,2013-01-05 15:47:00,
2013-01-05 10:52:00,24.2,13.8,30.21,NE,51,15.0,17.0,64,0.00,,,0.00,Wunderground v.1.15,2013-01-05 15:52:00,
2013-01-05 10:57:00,24.4,13.6,30.22,NE,36,5.0,17.0,63,0.00,,,0.00,Wunderground v.1.15,2013-01-05 15:57:00,
2013-01-05 11:02:00,25.4,14.5,30.22,North,9,4.0,10.0,63,0.00,,,0.00,Wunderground v.1.15,2013-01-05 16:02:00,
2013-01-05 11:07:00,26.1,14.5,30.22,NNE,28,6.0,10.0,61,0.00,,,0.00,Wunderground v.1.15,2013-01-05 16:07:00,
2013-01-05 11:12:00,26.0,14.0,30.23,NNE,18,2.0,12.0,60,0.00,,,0.00,Wunderground v.1.15,2013-01-05 16:12:00,
2013-01-05 11:17:00,25.7,13.3,30.23,NE,38,11.0,14.0,59,0.00,,,0.00,Wunderground v.1.15,2013-01-05 16:17:00,
2013-01-05 11:22:00,25.8,13.8,30.23,NNE,22,7.0,13.0,60,0.00,,,0.00,Wunderground v.1.15,2013-01-05 16:22:00,
2013-01-05 11:27:00,25.8,13.8,30.23,NNE,27,7.0,13.0,60,0.00,,,0.00,Wunderground v.1.15,2013-01-05 16:27:00,
2013-01-05 11:32:00,26.6,14.6,30.23,North,355,6.0,11.0,60,0.00,,,0.00,Wunderground v.1.15,2013-01-05 16:32:00,
2013-01-05 11:38:00,26.9,14.5,30.23,NNW,340,7.0,17.0,59,0.00,,,0.00,Wunderground v.1.15,2013-01-05 16:38:00,
2013-01-05 11:43:00,26.9,14.1,30.22,NNW,338,3.0,13.0,58,0.00,,,0.00,Wunderground v.1.15,2013-01-05 16:43:00,
2013-01-05 11:48:00,26.7,13.9,30.22,North,5,9.0,13.0,58,0.00,,,0.00,Wunderground v.1.15,2013-01-05 16:48:00,
2013-01-05 11:53:00,26.0,14.0,30.22,NNW,341,5.0,7.0,60,0.00,,,0.00,Wunderground v.1.15,2013-01-05 16:53:00,
2013-01-05 11:58:00,25.0,13.1,30.23,North,360,6.0,14.0,60,0.00,,,0.00,Wunderground v.1.15,2013-01-05 16:58:00,
2013-01-05 12:03:00,24.7,13.1,30.23,NNE,18,5.0,14.0,61,0.00,,,0.00,Wunderground v.1.15,2013-01-05 17:03:00,
2013-01-05 12:09:00,25.0,13.8,30.23,NE,40,5.0,14.0,62,0.00,,,0.00,Wunderground v.1.15,2013-01-05 17:09:00,
2013-01-05 12:14:00,25.3,13.7,30.23,NNE,15,6.0,12.0,61,0.00,,,0.00,Wunderground v.1.15,2013-01-05 17:14:00,
2013-01-05 12:19:00,25.7,14.1,30.23,North,9,6.0,12.0,61,0.00,,,0.00,Wunderground v.1.15,2013-01-05 17:19:00,
2013-01-05 12:24:00,25.8,13.4,30.23,NNE,16,7.0,15.0,59,0.00,,,0.00,Wunderground v.1.15,2013-01-05 17:24:00,
2013-01-05 12:29:00,25.7,13.7,30.22,North,5,8.0,15.0,60,0.00,,,0.00,Wunderground v.1.15,2013-01-05 17:29:00,
2013-01-05 12:34:00,26.3,13.9,30.22,NE,41,9.0,11.0,59,0.00,,,0.00,Wunderground v.1.15,2013-01-05 17:34:00,
2013-01-05 12:39:00,26.3,14.3,30.22,North,360,2.0,13.0,60,0.00,,,0.00,Wunderground v.1.15,2013-01-05 17:39:00,
2013-01-05 12:44:00,26.9,13.3,30.23,NE,42,4.0,13.0,56,0.00,,,0.00,Wunderground v.1.15,2013-01-05 17:44:00,
2013-01-05 12:49:00,26.3,12.3,30.23,NE,45,11.0,13.0,55,0.00,,,0.00,Wunderground v.1.15,2013-01-05 17:49:00,
2013-01-05 12:55:00,26.6,13.0,30.23,NE,44,13.0,13.0,56,0.00,,,0.00,Wunderground v.1.15,2013-01-05 17:55:00,
2013-01-05 13:00:00,26.3,12.3,30.23,NE,50,8.0,15.0,55,0.00,,,0.00,Wunderground v.1.15,2013-01-05 18:00:00,
2013-01-05 13:05:00,26.1,12.1,30.23,NE,52,7.0,12.0,55,0.00,,,0.00,Wunderground v.1.15,2013-01-05 18:05:00,
2013-01-05 13:10:00,26.0,12.0,30.23,NNE,27,4.0,12.0,55,0.00,,,0.00,Wunderground v.1.15,2013-01-05 18:10:00,
2013-01-05 13:14:00,26.3,13.1,30.23,North,9,3.0,7.0,57,0.00,,,0.00,Wunderground v.1.15,2013-01-05 18:14:00,
2013-01-05 13:19:00,26.3,12.7,30.23,NNE,17,6.0,11.0,56,0.00,,,0.00,Wunderground v.1.15,2013-01-05 18:19:00,
2013-01-05 13:24:00,26.1,12.5,30.23,North,360,5.0,12.0,56,0.00,,,0.00,Wunderground v.1.15,2013-01-05 18:24:00,
2013-01-05 13:30:00,26.3,12.7,30.22,NNE,24,7.0,7.0,56,0.00,,,0.00,Wunderground v.1.15,2013-01-05 18:30:00,
2013-01-05 13:35:00,26.0,12.0,30.22,North,11,2.0,12.0,55,0.00,,,0.00,Wunderground v.1.15,2013-01-05 18:35:00,
2013-01-05 13:40:00,26.3,12.3,30.22,NNE,15,6.0,6.0,55,0.00,,,0.00,Wunderground v.1.15,2013-01-05 18:40:00,
2013-01-05 13:45:00,26.6,12.6,30.22,NNE,18,7.0,9.0,55,0.00,,,0.00,Wunderground v.1.15,2013-01-05 18:45:00,
2013-01-05 13:50:00,26.4,12.0,30.22,NNE,32,7.0,10.0,54,0.00,,,0.00,Wunderground v.1.15,2013-01-05 18:50:00,
2013-01-05 13:55:00,26.3,11.9,30.22,NNE,33,9.0,10.0,54,0.00,,,0.00,Wunderground v.1.15,2013-01-05 18:55:00,
2013-01-05 14:01:00,27.2,13.1,30.22,North,5,7.0,7.0,55,0.00,,,0.00,Wunderground v.1.15,2013-01-05 19:01:00,
2013-01-05 14:06:00,26.9,12.0,30.22,NNE,31,5.0,10.0,53,0.00,,,0.00,Wunderground v.1.15,2013-01-05 19:06:00,
2013-01-05 14:11:00,26.3,11.5,30.22,NE,35,6.0,7.0,53,0.00,,,0.00,Wunderground v.1.15,2013-01-05 19:11:00,
2013-01-05 14:16:00,26.3,11.9,30.22,NE,41,5.0,9.0,54,0.00,,,0.00,Wunderground v.1.15,2013-01-05 19:16:00,
2013-01-05 14:21:00,27.0,13.4,30.22,NNE,16,9.0,9.0,56,0.00,,,0.00,Wunderground v.1.15,2013-01-05 19:21:00,
2013-01-05 14:26:00,27.6,13.1,30.22,NNE,13,1.0,9.0,54,0.00,,,0.00,Wunderground v.1.15,2013-01-05 19:26:00,
2013-01-05 14:31:00,28.2,12.8,30.22,North,10,7.0,7.0,52,0.00,,,0.00,Wunderground v.1.15,2013-01-05 19:31:00,
2013-01-05 14:36:00,27.6,12.7,30.22,NNE,26,0.0,8.0,53,0.00,,,0.00,Wunderground v.1.15,2013-01-05 19:36:00,
2013-01-05 14:41:00,28.4,13.4,30.22,North,360,3.0,7.0,53,0.00,,,0.00,Wunderground v.1.15,2013-01-05 19:41:00,
2013-01-05 14:46:00,29.0,13.1,30.22,North,355,2.0,7.0,51,0.00,,,0.00,Wunderground v.1.15,2013-01-05 19:46:00,
2013-01-05 14:51:00,29.3,13.4,30.22,North,355,1.0,4.0,51,0.00,,,0.00,Wunderground v.1.15,2013-01-05 19:51:00,
2013-01-05 14:56:00,29.5,13.1,30.22,North,355,0.0,5.0,50,0.00,,,0.00,Wunderground v.1.15,2013-01-05 19:56:00,
2013-01-05 15:01:00,30.1,13.7,30.22,North,355,3.0,4.0,50,0.00,,,0.00,Wunderground v.1.15,2013-01-05 20:01:00,
2013-01-05 15:06:00,30.3,13.9,30.22,North,355,1.0,4.0,50,0.00,,,0.00,Wunderground v.1.15,2013-01-05 20:06:00,
2013-01-05 15:12:00,30.6,14.1,30.22,North,355,3.0,3.0,50,0.00,,,0.00,Wunderground v.1.15,2013-01-05 20:12:00,
2013-01-05 15:17:00,30.4,13.0,30.22,North,355,4.0,6.0,48,0.00,,,0.00,Wunderground v.1.15,2013-01-05 20:17:00,
2013-01-05 15:22:00,30.0,13.1,30.22,North,355,1.0,2.0,49,0.00,,,0.00,Wunderground v.1.15,2013-01-05 20:22:00,
2013-01-05 15:27:00,29.1,12.8,30.22,North,355,0.0,3.0,50,0.00,,,0.00,Wunderground v.1.15,2013-01-05 20:27:00,
2013-01-05 15:32:00,28.4,12.1,30.22,North,355,1.0,2.0,50,0.00,,,0.00,Wunderground v.1.15,2013-01-05 20:32:00,
2013-01-05 15:37:00,27.9,11.6,30.22,North,355,0.0,3.0,50,0.00,,,0.00,Wunderground v.1.15,2013-01-05 20:37:00,
2013-01-05 15:42:00,27.2,11.4,30.22,North,355,0.0,1.0,51,0.00,,,0.00,Wunderground v.1.15,2013-01-05 20:42:00,
2013-01-05 15:48:00,26.1,10.9,30.22,North,355,2.0,4.0,52,0.00,,,0.00,Wunderground v.1.15,2013-01-05 20:48:00,
2013-01-05 15:53:00,25.4,11.0,30.22,North,355,0.0,2.0,54,0.00,,,0.00,Wunderground v.1.15,2013-01-05 20:53:00,
2013-01-05 15:58:00,25.3,11.4,30.23,North,355,1.0,3.0,55,0.00,,,0.00,Wunderground v.1.15,2013-01-05 20:58:00,
2013-01-05 16:04:00,25.0,11.1,30.23,North,355,3.0,3.0,55,0.00,,,0.00,Wunderground v.1.15,2013-01-05 21:04:00,
2013-01-05 16:09:00,24.5,11.0,30.23,North,355,2.0,4.0,56,0.00,,,0.00,Wunderground v.1.15,2013-01-05 21:09:00,
2013-01-05 16:15:00,24.1,10.6,30.23,North,355,3.0,3.0,56,0.00,,,0.00,Wunderground v.1.15,2013-01-05 21:15:00,
2013-01-05 16:20:00,23.8,10.8,30.23,North,355,3.0,3.0,57,0.00,,,0.00,Wunderground v.1.15,2013-01-05 21:20:00,
2013-01-05 16:25:00,23.6,11.0,30.22,North,355,3.0,5.0,58,0.00,,,0.00,Wunderground v.1.15,2013-01-05 21:25:00,
2013-01-05 16:30:00,23.3,10.7,30.22,North,355,1.0,3.0,58,0.00,,,0.00,Wunderground v.1.15,2013-01-05 21:30:00,
2013-01-05 16:36:00,23.2,11.0,30.22,North,355,0.0,3.0,59,0.00,,,0.00,Wunderground v.1.15,2013-01-05 21:36:00,
2013-01-05 16:41:00,23.0,10.8,30.23,North,355,1.0,2.0,59,0.00,,,0.00,Wunderground v.1.15,2013-01-05 21:41:00,
2013-01-05 16:46:00,22.5,11.1,30.23,North,355,0.0,2.0,61,0.00,,,0.00,Wunderground v.1.15,2013-01-05 21:46:00,
2013-01-05 16:51:00,22.4,11.0,30.23,North,355,0.0,1.0,61,0.00,,,0.00,Wunderground v.1.15,2013-01-05 21:51:00,
2013-01-05 16:56:00,22.2,10.8,30.24,North,355,0.0,1.0,61,0.00,,,0.00,Wunderground v.1.15,2013-01-05 21:56:00,
2013-01-05 17:01:00,22.1,10.7,30.24,North,355,0.0,1.0,61,0.00,,,0.00,Wunderground v.1.15,2013-01-05 22:01:00,
2013-01-05 17:06:00,21.6,10.9,30.24,North,355,0.0,1.0,63,0.00,,,0.00,Wunderground v.1.15,2013-01-05 22:06:00,
2013-01-05 17:11:00,21.3,10.7,30.23,North,355,0.0,1.0,63,0.00,,,0.00,Wunderground v.1.15,2013-01-05 22:11:00,
2013-01-05 17:16:00,21.1,10.8,30.23,North,355,0.0,2.0,64,0.00,,,0.00,Wunderground v.1.15,2013-01-05 22:16:00,
2013-01-05 17:21:00,21.1,10.5,30.23,North,355,1.0,3.0,63,0.00,,,0.00,Wunderground v.1.15,2013-01-05 22:21:00,
2013-01-05 17:27:00,21.1,10.5,30.23,North,355,2.0,3.0,63,0.00,,,0.00,Wunderground v.1.15,2013-01-05 22:27:00,
2013-01-05 17:32:00,21.3,10.7,30.23,North,355,1.0,1.0,63,0.00,,,0.00,Wunderground v.1.15,2013-01-05 22:32:00,
2013-01-05 17:37:00,21.1,10.5,30.23,North,355,1.0,2.0,63,0.00,,,0.00,Wunderground v.1.15,2013-01-05 22:37:00,
2013-01-05 17:42:00,21.1,10.5,30.24,North,355,0.0,3.0,63,0.00,,,0.00,Wunderground v.1.15,2013-01-05 22:42:00,
2013-01-05 17:47:00,21.1,10.5,30.24,North,355,0.0,3.0,63,0.00,,,0.00,Wunderground v.1.15,2013-01-05 22:47:00,
2013-01-05 17:52:00,20.5,9.9,30.24,North,355,0.0,0.0,63,0.00,,,0.00,Wunderground v.1.15,2013-01-05 22:52:00,
2013-01-05 17:58:00,20.3,9.7,30.24,North,355,0.0,0.0,63,0.00,,,0.00,Wunderground v.1.15,2013-01-05 22:58:00,
2013-01-05 18:03:00,20.3,10.1,30.24,North,355,0.0,0.0,64,0.00,,,0.00,Wunderground v.1.15,2013-01-05 23:03:00,
2013-01-05 18:08:00,19.9,9.7,30.24,North,355,0.0,0.0,64,0.00,,,0.00,Wunderground v.1.15,2013-01-05 23:08:00,
2013-01-05 18:13:00,19.7,9.8,30.24,North,355,0.0,1.0,65,0.00,,,0.00,Wunderground v.1.15,2013-01-05 23:13:00,
2013-01-05 18:18:00,19.7,9.8,30.24,North,355,0.0,1.0,65,0.00,,,0.00,Wunderground v.1.15,2013-01-05 23:18:00,
2013-01-05 18:23:00,19.5,10.0,30.24,North,355,0.0,0.0,66,0.00,,,0.00,Wunderground v.1.15,2013-01-05 23:23:00,
2013-01-05 18:28:00,20.0,10.1,30.23,North,355,0.0,2.0,65,0.00,,,0.00,Wunderground v.1.15,2013-01-05 23:28:00,
2013-01-05 18:33:00,20.3,10.4,30.23,North,355,0.0,0.0,65,0.00,,,0.00,Wunderground v.1.15,2013-01-05 23:33:00,
2013-01-05 18:38:00,19.9,9.7,30.23,North,355,0.0,0.0,64,0.00,,,0.00,Wunderground v.1.15,2013-01-05 23:38:00,
2013-01-05 18:43:00,19.4,9.9,30.23,North,355,0.0,0.0,66,0.00,,,0.00,Wunderground v.1.15,2013-01-05 23:43:00,
2013-01-05 18:48:00,18.6,8.8,30.23,North,355,1.0,2.0,65,0.00,,,0.00,Wunderground v.1.15,2013-01-05 23:48:00,
2013-01-05 18:53:00,18.0,8.9,30.23,North,355,0.0,2.0,67,0.00,,,0.00,Wunderground v.1.15,2013-01-05 23:53:00,
2013-01-05 18:58:00,17.7,8.9,30.23,North,355,0.0,2.0,68,0.00,,,0.00,Wunderground v.1.15,2013-01-05 23:58:00,
2013-01-05 19:04:00,17.7,8.9,30.23,North,355,0.0,0.0,68,0.00,,,0.00,Wunderground v.1.15,2013-01-06 00:04:00,
2013-01-05 19:09:00,17.2,8.8,30.23,North,355,0.0,0.0,69,0.00,,,0.00,Wunderground v.1.15,2013-01-06 00:09:00,
2013-01-05 19:14:00,16.7,8.3,30.23,North,355,0.0,0.0,69,0.00,,,0.00,Wunderground v.1.15,2013-01-06 00:14:00,
2013-01-05 19:18:00,16.2,8.1,30.23,North,355,0.0,0.0,70,0.00,,,0.00,Wunderground v.1.15,2013-01-06 00:18:00,
2013-01-05 19:23:00,16.2,8.4,30.23,North,355,0.0,1.0,71,0.00,,,0.00,Wunderground v.1.15,2013-01-06 00:23:00,
2013-01-05 19:28:00,16.4,8.6,30.23,North,355,0.0,1.0,71,0.00,,,0.00,Wunderground v.1.15,2013-01-06 00:28:00,
2013-01-05 19:34:00,16.2,8.8,30.23,North,355,0.0,2.0,72,0.00,,,0.00,Wunderground v.1.15,2013-01-06 00:34:00,
2013-01-05 19:39:00,16.7,9.5,30.23,North,355,1.0,2.0,73,0.00,,,0.00,Wunderground v.1.15,2013-01-06 00:39:00,
2013-01-05 19:44:00,17.2,9.7,30.23,North,355,2.0,3.0,72,0.00,,,0.00,Wunderground v.1.15,2013-01-06 00:44:00,
2013-01-05 19:49:00,17.7,9.9,30.23,North,355,1.0,3.0,71,0.00,,,0.00,Wunderground v.1.15,2013-01-06 00:49:00,
2013-01-05 19:55:00,17.5,9.7,30.22,North,355,0.0,2.0,71,0.00,,,0.00,Wunderground v.1.15,2013-01-06 00:55:00,
2013-01-05 20:00:00,17.0,9.2,30.22,North,355,3.0,3.0,71,0.00,,,0.00,Wunderground v.1.15,2013-01-06 01:00:00,
2013-01-05 20:05:00,16.9,9.1,30.22,North,355,1.0,3.0,71,0.00,,,0.00,Wunderground v.1.15,2013-01-06 01:05:00,
2013-01-05 20:10:00,16.5,9.0,30.22,North,355,1.0,1.0,72,0.00,,,0.00,Wunderground v.1.15,2013-01-06 01:10:00,
2013-01-05 20:15:00,16.4,8.9,30.22,North,355,3.0,3.0,72,0.00,,,0.00,Wunderground v.1.15,2013-01-06 01:15:00,
2013-01-05 20:20:00,16.1,8.7,30.22,North,360,4.0,5.0,72,0.00,,,0.00,Wunderground v.1.15,2013-01-06 01:20:00,
2013-01-05 20:25:00,16.2,9.1,30.23,NNE,16,2.0,6.0,73,0.00,,,0.00,Wunderground v.1.15,2013-01-06 01:25:00,
2013-01-05 20:30:00,16.4,9.3,30.23,NE,49,3.0,5.0,73,0.00,,,0.00,Wunderground v.1.15,2013-01-06 01:30:00,
2013-01-05 20:35:00,16.7,9.5,30.23,ENE,61,3.0,6.0,73,0.00,,,0.00,Wunderground v.1.15,2013-01-06 01:35:00,
2013-01-05 20:40:00,16.7,9.2,30.23,ENE,62,3.0,4.0,72,0.00,,,0.00,Wunderground v.1.15,2013-01-06 01:40:00,
2013-01-05 20:45:00,17.0,9.5,30.23,ENE,67,3.0,5.0,72,0.00,,,0.00,Wunderground v.1.15,2013-01-06 01:45:00,
2013-01-05 20:50:00,17.2,9.4,30.23,ENE,68,2.0,3.0,71,0.00,,,0.00,Wunderground v.1.15,2013-01-06 01:50:00,
2013-01-05 20:55:00,17.0,9.5,30.22,ENE,69,2.0,4.0,72,0.00,,,0.00,Wunderground v.1.15,2013-01-06 01:55:00,
2013-01-05 21:01:00,16.5,8.7,30.22,ENE,69,0.0,2.0,71,0.00,,,0.00,Wunderground v.1.15,2013-01-06 02:01:00,
2013-01-05 21:06:00,16.2,9.1,30.22,ENE,69,2.0,3.0,73,0.00,,,0.00,Wunderground v.1.15,2013-01-06 02:06:00,
2013-01-05 21:11:00,16.7,9.8,30.21,ENE,69,3.0,4.0,74,0.00,,,0.00,Wunderground v.1.15,2013-01-06 02:11:00,
2013-01-05 21:16:00,17.2,10.3,30.21,ENE,76,3.0,5.0,74,0.00,,,0.00,Wunderground v.1.15,2013-01-06 02:16:00,
2013-01-05 21:21:00,17.2,10.0,30.21,East,84,3.0,6.0,73,0.00,,,0.00,Wunderground v.1.15,2013-01-06 02:21:00,
2013-01-05 21:26:00,17.2,10.0,30.21,East,90,4.0,6.0,73,0.00,,,0.00,Wunderground v.1.15,2013-01-06 02:26:00,
2013-01-05 21:31:00,17.5,10.3,30.21,ESE,103,3.0,6.0,73,0.00,,,0.00,Wunderground v.1.15,2013-01-06 02:31:00,
2013-01-05 21:36:00,17.3,10.1,30.21,ESE,104,3.0,6.0,73,0.00,,,0.00,Wunderground v.1.15,2013-01-06 02:36:00,
2013-01-05 21:41:00,16.9,9.7,30.21,ESE,104,0.0,3.0,73,0.00,,,0.00,Wunderground v.1.15,2013-01-06 02:41:00,
2013-01-05 21:46:00,16.4,9.6,30.21,ESE,104,3.0,3.0,74,0.00,,,0.00,Wunderground v.1.15,2013-01-06 02:46:00,
2013-01-05 21:51:00,16.7,9.8,30.21,ESE,104,1.0,2.0,74,0.00,,,0.00,Wunderground v.1.15,2013-01-06 02:51:00,
2013-01-05 21:56:00,16.7,9.8,30.20,ESE,104,0.0,3.0,74,0.00,,,0.00,Wunderground v.1.15,2013-01-06 02:56:00,
2013-01-05 22:02:00,16.2,8.8,30.20,ESE,104,0.0,1.0,72,0.00,,,0.00,Wunderground v.1.15,2013-01-06 03:02:00,
2013-01-05 22:07:00,15.2,8.4,30.20,ESE,104,0.0,2.0,74,0.00,,,0.00,Wunderground v.1.15,2013-01-06 03:07:00,
2013-01-05 22:12:00,14.9,8.1,30.19,ESE,104,0.0,0.0,74,0.00,,,0.00,Wunderground v.1.15,2013-01-06 03:12:00,
2013-01-05 22:17:00,14.1,7.6,30.19,ESE,104,0.0,0.0,75,0.00,,,0.00,Wunderground v.1.15,2013-01-06 03:17:00,
2013-01-05 22:22:00,14.0,8.1,30.19,ESE,104,0.0,0.0,77,0.00,,,0.00,Wunderground v.1.15,2013-01-06 03:22:00,
2013-01-05 22:27:00,13.8,7.6,30.19,ESE,104,0.0,0.0,76,0.00,,,0.00,Wunderground v.1.15,2013-01-06 03:27:00,
2013-01-05 22:32:00,13.3,7.1,30.19,ESE,104,0.0,0.0,76,0.00,,,0.00,Wunderground v.1.15,2013-01-06 03:32:00,
2013-01-05 22:37:00,12.6,6.8,30.19,ESE,104,2.0,3.0,77,0.00,,,0.00,Wunderground v.1.15,2013-01-06 03:37:00,
2013-01-05 22:42:00,12.6,7.0,30.22,ESE,104,2.0,2.0,78,0.00,,,0.00,Wunderground v.1.15,2013-01-06 03:42:00,
2013-01-05 22:47:00,14.1,9.1,30.22,ESE,104,2.0,3.0,80,0.00,,,0.00,Wunderground v.1.15,2013-01-06 03:47:00,
2013-01-05 22:52:00,14.9,9.6,30.22,ESE,104,0.0,2.0,79,0.00,,,0.00,Wunderground v.1.15,2013-01-06 03:52:00,
2013-01-05 22:57:00,15.2,9.6,30.21,ESE,104,0.0,2.0,78,0.00,,,0.00,Wunderground v.1.15,2013-01-06 03:57:00,
2013-01-05 23:02:00,15.1,9.2,30.21,ESE,104,0.0,1.0,77,0.00,,,0.00,Wunderground v.1.15,2013-01-06 04:02:00,
2013-01-05 23:07:00,14.8,8.9,30.21,ESE,104,0.0,1.0,77,0.00,,,0.00,Wunderground v.1.15,2013-01-06 04:07:00,
2013-01-05 23:13:00,14.6,8.7,30.20,ESE,104,0.0,0.0,77,0.00,,,0.00,Wunderground v.1.15,2013-01-06 04:13:00,
2013-01-05 23:18:00,14.4,8.5,30.20,ESE,104,0.0,2.0,77,0.00,,,0.00,Wunderground v.1.15,2013-01-06 04:18:00,
2013-01-05 23:23:00,14.1,8.2,30.20,ESE,104,2.0,2.0,77,0.00,,,0.00,Wunderground v.1.15,2013-01-06 04:23:00,
2013-01-05 23:28:00,14.3,8.7,30.19,ESE,104,0.0,3.0,78,0.00,,,0.00,Wunderground v.1.15,2013-01-06 04:28:00,
2013-01-05 23:33:00,14.3,8.4,30.19,ESE,104,0.0,1.0,77,0.00,,,0.00,Wunderground v.1.15,2013-01-06 04:33:00,
2013-01-05 23:38:00,14.6,9.0,30.19,ESE,104,3.0,4.0,78,0.00,,,0.00,Wunderground v.1.15,2013-01-06 04:38:00,
2013-01-05 23:43:00,15.2,9.6,30.19,ESE,104,1.0,4.0,78,0.00,,,0.00,Wunderground v.1.15,2013-01-06 04:43:00,
2013-01-05 23:48:00,15.7,10.1,30.19,ESE,104,3.0,4.0,78,0.00,,,0.00,Wunderground v.1.15,2013-01-06 04:48:00,
2013-01-05 23:53:00,16.2,10.3,30.19,ESE,104,2.0,3.0,77,0.00,,,0.00,Wunderground v.1.15,2013-01-06 04:53:00,
2013-01-05 23:58:00,15.7,9.5,30.19,ESE,104,0.0,3.0,76,0.00,,,0.00,Wunderground v.1.15,2013-01-06 04:58:00,